CW5478 Weather Reports


Display with metric or nautical units.
time (UTC)temp
F
wind
direction
speed
MPH
gust
MPH
rain 1hr
in
rain 24hr
in
rain mn
in
humidity
%
barometer
mb
20260508104303 44 229 11.0 13.0 0.00 0.00 0.00 52 1023.3
20260508103303 44 240 11.0 14.0 0.00 0.00 0.00 52 1023.2
20260508102803 45 225 12.0 14.0 0.00 0.00 0.00 50 1023.3
20260508101803 45 270 12.0 16.0 0.00 0.00 0.00 49 1023.3
20260508101303 46 270 12.0 14.0 0.00 0.00 0.00 48 1023.3
20260508100803 46 268 10.0 16.0 0.00 0.00 0.00 47 1023.3
20260508100304 46 269 12.0 18.0 0.00 0.00 0.00 47 1023.3
20260508095803 46 267 10.0 17.0 0.00 0.00 0.00 47 1023.3
20260508095306 47 259 12.0 18.0 0.00 0.00 0.00 46 1023.3
20260508094304 48 263 15.0 21.0 0.00 0.00 0.00 44 1023.3
20260508093803 48 270 14.0 21.0 0.00 0.00 0.00 44 1023.2
20260508093304 48 269 12.0 21.0 0.00 0.00 0.00 44 1023.3
20260508092803 47 274 13.0 22.0 0.00 0.00 0.00 44 1023.1
20260508092312 47 290 9.0 22.0 0.00 0.00 0.00 44 1023.1
20260508091803 47 276 6.0 12.0 0.00 0.00 0.00 44 1023.3
20260508091304 47 295 11.0 17.0 0.00 0.00 0.00 44 1023.3
20260508090803 48 277 7.0 14.0 0.00 0.00 0.00 43 1023.3
20260508090303 48 270 10.0 14.0 0.00 0.00 0.00 42 1023.3
20260508085804 48 270 14.0 22.0 0.00 0.00 0.00 43 1023.3
20260508085306 48 269 14.0 22.0 0.00 0.00 0.00 44 1023.1
20260508084803 48 270 21.0 29.0 0.00 0.00 0.00 45 1023.0
20260508084303 48 270 13.0 18.0 0.00 0.00 0.00 45 1023.0
20260508083803 48 270 12.0 17.0 0.00 0.00 0.00 44 1023.3
20260508083303 48 273 15.0 21.0 0.00 0.00 0.00 44 1023.3
20260508082803 48 275 9.0 13.0 0.00 0.00 0.00 44 1023.7
20260508082306 49 288 12.0 17.0 0.00 0.00 0.00 43 1023.7
20260508081803 49 274 13.0 20.0 0.00 0.00 0.00 42 1023.7
20260508081304 48 270 12.0 17.0 0.00 0.00 0.00 42 1023.4
20260508080804 48 271 11.0 17.0 0.00 0.00 0.00 42 1023.4
20260508080304 48 276 9.0 16.0 0.00 0.00 0.00 42 1023.7
20260508075804 49 277 13.0 20.0 0.00 0.00 0.00 41 1023.7
20260508075308 49 270 14.0 25.0 0.00 0.00 0.00 41 1023.6
20260508074803 49 267 17.0 26.0 0.00 0.00 0.00 41 1023.4
20260508074303 49 267 15.0 24.0 0.00 0.00 0.00 41 1023.3
20260508073803 49 269 20.0 25.0 0.00 0.00 0.00 41 1023.3
20260508073303 49 266 17.0 26.0 0.00 0.00 0.00 42 1023.3
20260508072803 48 269 7.0 14.0 0.00 0.00 0.00 43 1023.7
20260508072307 48 269 9.0 13.0 0.00 0.00 0.00 44 1023.9
20260508071803 47 292 9.0 13.0 0.00 0.00 0.00 45 1023.7
20260508071303 47 273 7.0 8.0 0.00 0.00 0.00 46 1024.0
20260508070803 47 284 7.0 8.0 0.00 0.00 0.00 46 1024.0
20260508070303 47 270 4.0 6.0 0.00 0.00 0.00 46 1024.0
20260508065803 47 270 6.0 6.0 0.00 0.00 0.00 45 1024.0
20260508065306 47 309 4.0 7.0 0.00 0.00 0.00 46 1024.0
20260508064803 46 277 5.0 7.0 0.00 0.00 0.00 49 1024.0
20260508064304 45 270 7.0 10.0 0.00 0.00 0.00 51 1024.0
20260508063804 46 270 7.0 8.0 0.00 0.00 0.00 51 1024.1
20260508063303 47 315 5.0 7.0 0.00 0.00 0.00 48 1024.3
20260508062803 48 327 6.0 10.0 0.00 0.00 0.00 45 1024.3
20260508061803 48 264 2.0 8.0 0.00 0.00 0.00 45 1024.0
20260508061303 47 270 3.0 6.0 0.00 0.00 0.00 46 1024.0
20260508060304 47 247 4.0 6.0 0.00 0.00 0.00 46 1023.7
20260508055803 47 90 1.0 2.0 0.00 0.00 0.00 45 1023.9
20260508055306 47 90 2.0 6.0 0.00 0.00 0.00 45 1023.9
20260508054804 47 225 1.0 5.0 0.00 0.00 0.00 46 1024.0
20260508054303 47 90 2.0 6.0 0.00 0.00 0.00 45 1024.0
20260508053803 47 270 2.0 3.0 0.00 0.00 0.00 44 1023.7
20260508053304 47 225 3.0 5.0 0.00 0.00 0.00 44 1024.0
20260508052803 47 217 5.0 7.0 0.00 0.00 0.00 46 1023.7
20260508052306 47 270 6.0 9.0 0.00 0.00 0.00 46 1024.0
20260508051303 48 225 7.0 8.0 0.00 0.00 0.00 46 1024.0
20260508050803 48 52 6.0 10.0 0.00 0.00 0.00 41 1024.0
20260508050303 48 104 1.0 5.0 0.00 0.00 0.00 40 1024.0
20260508045803 48 178 3.0 6.0 0.00 0.00 0.00 41 1024.0
20260508044803 45 225 5.0 8.0 0.00 0.00 0.00 49 1024.0
20260508044303 44 225 7.0 9.0 0.00 0.00 0.00 52 1024.0
20260508043803 45 225 8.0 9.0 0.00 0.00 0.00 52 1024.0
20260508043304 45 225 7.0 9.0 0.00 0.00 0.00 51 1024.0
20260508042803 45 225 6.0 8.0 0.00 0.00 0.00 53 1024.0
20260508042307 45 225 5.0 6.0 0.00 0.00 0.00 54 1024.0
20260508041803 46 157 3.0 5.0 0.00 0.00 0.00 53 1024.0
20260508041303 47 199 1.0 3.0 0.00 0.00 0.00 50 1024.0
20260508040803 48 135 3.0 5.0 0.00 0.00 0.00 45 1024.0
20260508040304 48 171 1.0 1.0 0.00 0.00 0.00 43 1024.0
20260508035804 48 337 1.0 8.0 0.00 0.00 0.00 44 1024.0
20260508035306 48 270 5.0 9.0 0.00 0.00 0.00 44 1024.0
20260508034804 49 349 3.0 6.0 0.00 0.00 0.00 43 1024.0
20260508034303 50 350 6.0 10.0 0.00 0.00 0.00 40 1024.0
20260508033803 51 322 6.0 9.0 0.00 0.00 0.00 38 1024.0
20260508032804 50 263 5.0 13.0 0.00 0.00 0.00 39 1023.9
20260508032306 48 220 6.0 14.0 0.00 0.00 0.00 42 1023.7
20260508031803 47 147 7.0 9.0 0.00 0.00 0.00 44 1023.4
20260508031304 47 225 5.0 9.0 0.00 0.00 0.00 48 1023.7
20260508030804 47 209 9.0 12.0 0.00 0.00 0.00 48 1023.7
20260508030303 48 225 7.0 10.0 0.00 0.00 0.00 44 1023.7
20260508025306 48 45 4.0 6.0 0.00 0.00 0.00 43 1023.4
20260508024304 49 0 5.0 5.0 0.00 0.00 0.00 43 1023.4
20260508023803 49 315 3.0 5.0 0.00 0.00 0.00 42 1023.6
20260508023303 50 270 4.0 7.0 0.00 0.00 0.00 41 1023.7
20260508022803 49 286 9.0 13.0 0.00 0.00 0.00 42 1023.3
20260508022306 48 247 7.0 8.0 0.00 0.00 0.00 45 1023.3
20260508021803 47 270 7.0 9.0 0.00 0.00 0.00 46 1023.3
20260508021303 48 270 8.0 9.0 0.00 0.00 0.00 45 1023.3
20260508020803 49 261 7.0 10.0 0.00 0.00 0.00 43 1023.3
20260508020304 49 270 7.0 10.0 0.00 0.00 0.00 44 1023.3
20260508015306 48 225 6.0 8.0 0.00 0.00 0.00 45 1023.3
20260508014804 49 270 6.0 8.0 0.00 0.00 0.00 45 1023.3
20260508014303 49 247 7.0 8.0 0.00 0.00 0.00 45 1023.3
20260508013303 49 246 4.0 6.0 0.00 0.00 0.00 45 1023.3
20260508012803 50 225 4.0 6.0 0.00 0.00 0.00 45 1023.3
20260508012307 51 247 3.0 5.0 0.00 0.00 0.00 45 1023.3
20260508011804 50 315 2.0 2.0 0.00 0.00 0.00 44 1023.0
20260508011303 50 270 0.0 2.0 0.00 0.00 0.00 45 1023.0
20260508010803 50 274 2.0 2.0 0.00 0.00 0.00 46 1023.0
20260508010303 50 0 1.0 3.0 0.00 0.00 0.00 44 1023.3
20260508005804 50 0 2.0 3.0 0.00 0.00 0.00 44 1023.3
20260508005305 50 344 1.0 5.0 0.00 0.00 0.00 44 1023.0
20260508004303 49 270 2.0 5.0 0.00 0.00 0.00 48 1023.3
20260508003304 50 315 5.0 7.0 0.00 0.00 0.00 46 1023.0
20260508002804 51 315 5.0 8.0 0.00 0.00 0.00 43 1023.3
20260508002306 51 315 8.0 10.0 0.00 0.00 0.00 42 1023.3
20260508001804 52 315 5.0 8.0 0.00 0.00 0.00 40 1023.0
20260508001303 53 292 8.0 14.0 0.00 0.00 0.00 39 1023.0
20260507235803 52 270 5.0 12.0 0.00 0.00 0.00 40 1023.0
20260507235306 53 258 6.0 10.0 0.00 0.00 0.00 38 1023.0
20260507234803 54 253 12.0 16.0 0.00 0.00 0.00 37 1023.0
20260507234303 55 268 11.0 17.0 0.00 0.00 0.00 37 1023.0
20260507233803 55 270 10.0 14.0 0.00 0.00 0.00 37 1022.9
20260507232306 56 254 11.0 17.0 0.00 0.00 0.00 35 1023.0
20260507231804 56 270 9.0 16.0 0.00 0.00 0.00 35 1023.0
20260507231304 56 293 10.0 18.0 0.00 0.00 0.00 35 1023.0
20260507230803 56 268 10.0 17.0 0.00 0.00 0.00 35 1023.0
20260507225804 56 303 5.0 18.0 0.00 0.00 0.00 35 1023.0
20260507225306 56 277 9.0 13.0 0.00 0.00 0.00 36 1023.0
20260507224304 57 303 9.0 13.0 0.00 0.00 0.00 37 1023.0
20260507223804 57 319 7.0 10.0 0.00 0.00 0.00 37 1023.0
20260507223303 57 0 7.0 10.0 0.00 0.00 0.00 37 1023.3
20260507222804 57 55 4.0 8.0 0.00 0.00 0.00 37 1023.3
20260507222306 56 0 7.0 12.0 0.00 0.00 0.00 38 1023.3
20260507221304 54 269 8.0 16.0 0.00 0.00 0.00 38 1023.0
20260507220804 54 270 9.0 13.0 0.00 0.00 0.00 38 1023.0
20260507220304 54 269 11.0 16.0 0.00 0.00 0.00 38 1023.0
20260507215804 54 230 10.0 15.0 0.00 0.00 0.00 37 1023.3
20260507215306 54 264 10.0 15.0 0.00 0.00 0.00 38 1023.3
20260507214804 54 284 9.0 15.0 0.00 0.00 0.00 39 1023.4
20260507214304 54 300 3.0 12.0 0.00 0.00 0.00 38 1023.7
20260507213804 54 319 2.0 6.0 0.00 0.00 0.00 38 1023.7
20260507212804 54 42 4.0 8.0 0.00 0.00 0.00 38 1023.7
20260507212306 54 132 3.0 7.0 0.00 0.00 0.00 37 1024.0
20260507211804 53 138 6.0 8.0 0.00 0.00 0.00 38 1024.0
20260507211304 52 157 2.0 5.0 0.00 0.00 0.00 38 1024.0
20260507210803 52 135 3.0 7.0 0.00 0.00 0.00 38 1024.0
20260507210303 51 133 6.0 10.0 0.00 0.00 0.00 39 1024.0
20260507205804 51 135 5.0 8.0 0.00 0.00 0.00 38 1024.0
20260507205306 51 135 6.0 9.0 0.00 0.01 0.00 38 1024.3
20260507204304 50 135 5.0 9.0 0.00 0.01 0.00 39 1024.3
20260507203803 49 128 7.0 10.0 0.00 0.01 0.00 39 1024.3
20260507203304 49 112 8.0 10.0 0.00 0.02 0.00 38 1024.3
20260507202803 49 135 6.0 8.0 0.00 0.02 0.00 37 1024.3
20260507202306 49 135 7.0 9.0 0.00 0.02 0.00 37 1024.4
20260507201804 49 135 4.0 7.0 0.00 0.02 0.00 37 1024.7
20260507201304 49 130 4.0 6.0 0.00 0.03 0.00 36 1024.7
20260507200803 49 129 5.0 7.0 0.00 0.03 0.00 37 1024.7
20260507200303 49 112 5.0 8.0 0.00 0.04 0.00 38 1024.7
20260507195804 49 90 6.0 7.0 0.00 0.04 0.00 40 1024.7
20260507194804 48 135 3.0 3.0 0.00 0.06 0.00 39 1024.7
20260507194303 48 135 4.0 5.0 0.00 0.07 0.00 39 1024.7
20260507193804 48 126 3.0 5.0 0.00 0.08 0.00 38 1024.7
20260507193303 48 112 5.0 6.0 0.00 0.09 0.00 37 1024.7
20260507192804 48 135 3.0 6.0 0.00 0.11 0.00 37 1024.7
20260507192306 47 135 5.0 6.0 0.00 0.13 0.00 36 1024.7
20260507191803 48 135 6.0 7.0 0.00 0.15 0.00 35 1024.7
20260507191303 48 135 5.0 6.0 0.00 0.17 0.00 37 1024.7
20260507190804 49 135 5.0 6.0 0.00 0.18 0.00 37 1024.7
20260507190304 50 135 3.0 5.0 0.00 0.19 0.00 36 1024.7
20260507185803 51 180 2.0 3.0 0.00 0.20 0.00 35 1025.0
20260507185306 51 202 2.0 2.0 0.00 0.21 0.00 36 1025.0
20260507184804 51 225 3.0 3.0 0.00 0.22 0.00 36 1025.4
20260507182306 53 90 1.0 1.0 0.00 0.24 0.00 35 1025.4
20260507181803 52 90 0.0 0.0 0.00 0.24 0.00 38 1025.4
20260507181304 52 90 0.0 2.0 0.00 0.24 0.00 39 1025.7
20260507180803 52 90 2.0 3.0 0.00 0.24 0.00 38 1025.7
20260507180304 53 157 0.0 2.0 0.00 0.24 0.00 35 1025.7
20260507175306 54 225 0.0 1.0 0.00 0.24 0.00 32 1025.7
20260507174804 53 225 0.0 1.0 0.00 0.24 0.00 33 1025.7
20260507174304 52 225 0.0 2.0 0.00 0.24 0.00 34 1025.7
20260507173804 50 225 1.0 1.0 0.00 0.24 0.00 36 1025.7
20260507173304 47 225 0.0 2.0 0.00 0.24 0.00 41 1025.7
20260507172803 44 225 2.0 2.0 0.00 0.24 0.00 45 1025.7
20260507172307 42 225 2.0 3.0 0.00 0.24 0.00 46 1025.7
20260507171804 42 225 2.0 5.0 0.00 0.24 0.00 47 1025.7
20260507171304 42 225 3.0 5.0 0.00 0.24 0.00 46 1025.7
20260507170804 45 270 3.0 3.0 0.00 0.24 0.00 44 1025.7
20260507165803 47 0 3.0 3.0 0.00 0.24 0.00 46 1026.0
20260507165306 44 0 2.0 3.0 0.00 0.24 0.00 49 1025.7
20260507164804 44 37 4.0 6.0 0.00 0.24 0.00 48 1025.7
20260507164304 46 90 4.0 6.0 0.00 0.24 0.00 44 1025.7
20260507163804 49 95 1.0 5.0 0.00 0.25 0.00 41 1025.7
20260507163304 50 180 1.0 2.0 0.00 0.25 0.00 39 1025.7
20260507162804 51 180 2.0 5.0 0.00 0.25 0.00 37 1025.7
20260507162306 51 180 2.0 3.0 0.00 0.26 0.00 36 1025.7
20260507161304 49 90 0.0 0.0 0.00 0.28 0.00 39 1025.7
20260507160804 50 90 0.0 2.0 0.00 0.28 0.00 39 1026.0
20260507155804 51 90 2.0 3.0 0.00 0.30 0.00 36 1025.7
20260507154803 49 90 0.0 0.0 0.00 0.31 0.00 41 1026.0
20260507154304 49 90 1.0 3.0 0.00 0.31 0.00 40 1026.0
20260507153304 45 90 0.0 0.0 0.00 0.31 0.00 46 1026.0
20260507152804 41 90 0.0 0.0 0.00 0.31 0.00 50 1026.0
20260507152306 41 90 1.0 1.0 0.00 0.31 0.00 47 1026.0
20260507151803 44 90 0.0 1.0 0.00 0.31 0.00 42 1026.0
20260507151304 44 90 0.0 0.0 0.00 0.31 0.00 43 1026.0
20260507150804 43 90 0.0 1.0 0.00 0.31 0.00 47 1026.0
20260507150304 41 0 0.0 2.0 0.00 0.31 0.00 51 1026.0
20260507145804 38 0 1.0 2.0 0.00 0.31 0.00 55 1025.7
20260507145306 36 225 0.0 2.0 0.00 0.31 0.00 55 1025.7
20260507144804 37 225 3.0 5.0 0.00 0.31 0.00 54 1025.7
20260507144304 37 225 4.0 5.0 0.00 0.31 0.00 52 1025.7
20260507143804 36 238 3.0 5.0 0.00 0.31 0.00 52 1026.0
20260507143304 34 270 2.0 3.0 0.00 0.31 0.00 53 1026.0
20260507142804 33 270 2.0 3.0 0.00 0.31 0.00 54 1025.7
20260507142306 32 270 3.0 3.0 0.00 0.31 0.00 55 1025.7
20260507141802 32 270 3.0 5.0 0.00 0.31 0.00 56 1025.7
20260507141302 32 270 2.0 3.0 0.00 0.31 0.00 57 1025.7
20260507140802 33 270 3.0 5.0 0.00 0.31 0.00 56 1025.7
20260507140303 35 225 3.0 3.0 0.00 0.31 0.00 54 1025.7
20260507135802 35 247 2.0 3.0 0.00 0.31 0.00 54 1025.7
20260507135306 33 270 2.0 2.0 0.00 0.31 0.00 57 1025.7
20260507134802 32 270 2.0 3.0 0.00 0.31 0.00 57 1025.7
20260507133802 32 315 3.0 5.0 0.00 0.31 0.00 54 1025.7
20260507131302 30 274 3.0 5.0 0.00 0.31 0.00 49 1025.0
20260507130803 30 225 4.0 7.0 0.00 0.31 0.00 51 1025.0
20260507130302 29 225 7.0 9.0 0.00 0.31 0.00 56 1024.7
20260507125306 27 225 10.0 12.0 0.00 0.31 0.00 61 1024.7
20260507124802 28 225 10.0 12.0 0.00 0.31 0.00 59 1024.7
20260507124302 29 225 7.0 9.0 0.00 0.31 0.00 57 1025.0
20260507123803 28 247 6.0 8.0 0.00 0.31 0.00 58 1025.0
20260507122802 28 257 7.0 8.0 0.00 0.31 0.00 59 1025.0
20260507122306 26 270 5.0 7.0 0.00 0.31 0.00 61 1024.7
20260507121802 24 225 5.0 8.0 0.00 0.31 0.00 63 1024.7
20260507121303 24 225 8.0 9.0 0.00 0.31 0.00 61 1024.7
20260507115302 26 270 4.0 8.0 0.00 0.31 0.00 60 1024.7
20260507114802 27 225 7.0 8.0 0.00 0.31 0.00 60 1024.3
20260507114302 27 225 6.0 8.0 0.00 0.31 0.00 61 1024.3
20260507113802 24 225 7.0 10.0 0.00 0.31 0.00 64 1024.3
20260507113303 22 225 9.0 10.0 0.00 0.31 0.00 67 1024.3
20260507112803 22 210 7.0 9.0 0.00 0.31 0.00 63 1024.7
20260507112306 25 225 8.0 9.0 0.00 0.31 0.00 55 1024.4
20260507111802 27 225 8.0 10.0 0.00 0.31 0.00 54 1024.3
20260507111302 27 270 6.0 9.0 0.00 0.31 0.00 56 1024.3
20260507110803 27 225 9.0 10.0 0.00 0.31 0.00 57 1024.3
20260507110302 27 225 9.0 10.0 0.00 0.31 0.00 57 1024.3
20260507105802 27 225 6.0 9.0 0.00 0.31 0.00 58 1024.7
20260507105306 26 225 7.0 10.0 0.00 0.31 0.00 59 1024.3